Location: Terra Rouge Observatory
(46.0000°N, 62.7500°W)
Time: 09:51:37
(UTC-04:00)

Amateur Radio Satellites - All Passes

Search period start: 18 January 2018 09:21
Search period end: 19 January 2018 09:21
Location: Terra Rouge Observatory, 46.0000°N, 62.7500°W

Satellite Date Start Highest point End Downlink Frequencies (MHz)
Time Altitude Azimuth
DELFI C3 18 Jan 09:25:17 09:29:01 40° 98° (E) 09:32:42 145.870
PRISM 18 Jan 09:32:09 09:36:00 43° 71° (ENE) 09:39:52 437.425
EO-88 18 Jan 09:36:34 09:39:32 23° 95° (E) 09:42:27 145.990 - 145.960
Oscar 11 18 Jan 09:41:10 09:44:54 29° 293° (WNW) 09:48:36 .
TIGRISAT 18 Jan 09:43:52 09:47:58 38° 263° (W) 09:52:12 435.000
QB50P2 18 Jan 09:53:34 09:55:49 14° 60° (ENE) 09:58:03 145.880/145.840
UNISAT 6 18 Jan 09:58:53 10:02:34 25° 266° (W) 10:06:20 437.425
AIST 2D 18 Jan 10:03:39 10:06:56 38° 72° (ENE) 10:10:14 435.315
O/OREOS (USA 219) 18 Jan 10:23:17 10:27:40 52° 62° (ENE) 10:32:03 437.305
PCSat 18 Jan 10:23:18 10:28:29 49° 115° (ESE) 10:33:43 145.827
EO-79 18 Jan 10:24:12 10:27:38 25° 66° (ENE) 10:31:06 145.935-145.965
DUCHIFAT 1 18 Jan 10:27:18 10:30:26 21° 64° (ENE) 10:33:36 145.980
YUBILEINY 18 Jan 10:28:53 10:37:41 78° 80° (E) 10:46:22 435.215
RS-15 18 Jan 10:38:44 10:50:49 57° 319° (NW) 11:02:40 29.354- 29.394
Max Valier Satellite 18 Jan 10:43:38 10:47:02 34° 289° (WNW) 10:50:24 145.860
BEESAT 3 18 Jan 10:52:51 10:56:50 90° 157° (SSE) 11:00:51 437.485
POLYITAN 1 18 Jan 10:57:30 11:01:37 53° 72° (ENE) 11:05:47 437.675
DELFI C3 18 Jan 11:00:44 11:03:27 18° 295° (WNW) 11:06:11 145.870
LO-87 18 Jan 11:05:25 11:08:46 34° 97° (E) 11:12:05 145.935 - 145.965
PRISM 18 Jan 11:08:44 11:11:29 17° 268° (W) 11:14:14 437.425
EO-88 18 Jan 11:10:03 11:13:06 26° 292° (WNW) 11:16:10 145.990 - 145.960
NANOSAT C BR1 18 Jan 11:16:01 11:20:12 74° 74° (ENE) 11:24:27 145.865
ESTCUBE 1 18 Jan 11:26:24 11:30:45 46° 99° (E) 11:35:03 437.505/2401.250
QB50P2 18 Jan 11:26:51 11:31:03 67° 258° (WSW) 11:35:18 145.880/145.840
Oscar 19 18 Jan 11:30:56 11:34:39 20° 60° (ENE) 11:38:22 437.125/150
BEESAT 2 18 Jan 11:33:15 11:37:14 65° 122° (ESE) 11:41:15 435.950
AIST 2D 18 Jan 11:38:11 11:40:16 15° 269° (W) 11:42:20 435.315
BUGSAT 1 18 Jan 11:40:17 11:43:45 28° 67° (ENE) 11:47:17 437.445
EO-79 18 Jan 11:59:23 12:03:14 34° 263° (W) 12:07:07 145.935-145.965
SPROUT 18 Jan 12:00:17 12:03:55 26° 95° (E) 12:07:32 437.525
AO-91 18 Jan 12:00:30 12:03:11 22° 67° (ENE) 12:05:55 145.960
DUCHIFAT 1 18 Jan 12:01:51 12:05:49 41° 262° (W) 12:09:51 145.980
O/OREOS (USA 219) 18 Jan 12:03:40 12:06:39 18° 259° (W) 12:09:39 437.305
PCSat 18 Jan 12:07:16 12:12:05 32° 315° (NW) 12:16:57 145.827
YUBILEINY 18 Jan 12:26:56 12:33:30 25° 281° (WNW) 12:40:02 435.215
Gurwin Techsat 1B 18 Jan 12:30:31 12:35:34 47° 69° (ENE) 12:40:40 435.225
BEESAT 3 18 Jan 12:32:28 12:34:56 16° 325° (NW) 12:37:24 437.485
POLYITAN 1 18 Jan 12:35:07 12:37:43 16° 270° (W) 12:40:19 437.675
LO-87 18 Jan 12:39:22 12:41:55 18° 294° (WNW) 12:44:29 145.935 - 145.965
AO-7 18 Jan 12:46:13 12:52:42 26° 49° (NE) 12:59:12 .
NANOSAT C BR1 18 Jan 12:55:08 12:56:25 11° 272° (W) 12:57:43 145.865
RS-15 18 Jan 12:56:05 13:06:38 32° 350° (N) 13:16:50 29.354- 29.394
AO-85 18 Jan 12:57:09 13:01:06 67° 122° (ESE) 13:05:21 145.980
SO-50 18 Jan 12:59:39 13:02:57 19° 33° (NNE) 13:06:16 436.795
ESTCUBE 1 18 Jan 13:03:53 13:07:14 21° 297° (WNW) 13:10:34 437.505/2401.250
Oscar 19 18 Jan 13:08:19 13:13:29 64° 258° (WSW) 13:18:40 437.125/150
BEESAT 2 18 Jan 13:12:22 13:15:20 19° 322° (NW) 13:18:21 435.950
BUGSAT 1 18 Jan 13:15:32 13:19:02 28° 264° (W) 13:22:38 437.445
VELOX 1 18 Jan 13:15:34 13:19:59 86° 109° (ESE) 13:24:23 145.980
SPROUT 18 Jan 13:35:58 13:39:49 32° 292° (WNW) 13:43:38 437.525
UKube-1 18 Jan 13:36:27 13:39:27 18° 92° (E) 13:42:25 .
AO-91 18 Jan 13:36:59 13:39:40 21° 266° (W) 13:42:22 145.960
DX 1 18 Jan 13:41:17 13:45:12 32° 97° (E) 13:49:07 434.975-435.025
50 SAT 18 Jan 13:45:00 13:47:46 28° 97° (E) 13:50:30 437.505
PCSat 18 Jan 13:56:21 13:57:18 10° 339° (NNW) 13:58:14 145.827
M-CUBED/EXP-1 PRIME 18 Jan 14:07:39 14:08:31 11° 54° (NE) 14:09:22 437.505
ITAMSAT 1 18 Jan 14:08:54 14:13:21 30° 64° (ENE) 14:17:49 435.822/435.867
Gurwin Techsat 1B 18 Jan 14:11:23 14:15:44 25° 267° (W) 14:20:08 435.225
BEESAT 18 Jan 14:27:44 14:29:21 12° 87° (E) 14:30:58 436.000
AO-7 18 Jan 14:36:07 14:44:30 89° 251° (WSW) 14:52:57 .
AO-85 18 Jan 14:38:53 14:41:59 20° 325° (NW) 14:45:16 145.980
SO-50 18 Jan 14:39:22 14:44:06 85° 55° (NE) 14:48:52 436.795
MOZHAYETS 4 18 Jan 14:42:44 14:46:45 28° 95° (E) 14:50:42
VELOX 1 18 Jan 14:54:04 14:55:45 12° 302° (WNW) 14:57:28 145.980
UKube-1 18 Jan 15:11:34 15:15:42 47° 290° (WNW) 15:19:49 .
RS-15 18 Jan 15:12:24 15:23:24 39° 25° (NNE) 15:33:52 29.354- 29.394
50 SAT 18 Jan 15:17:18 15:19:16 16° 294° (WNW) 15:21:14 437.505
DX 1 18 Jan 15:17:38 15:21:17 27° 294° (WNW) 15:24:55 434.975-435.025
ITUPSAT 1 18 Jan 15:21:28 15:25:57 37° 97° (E) 15:30:24 437.325
DOVE 4 18 Jan 15:23:37 15:27:24 31° 69° (ENE) 15:31:06 437.250
M-CUBED/EXP-1 PRIME 18 Jan 15:37:53 15:42:17 78° 71° (ENE) 15:46:25 437.505
ITAMSAT 1 18 Jan 15:47:51 15:52:40 40° 262° (W) 15:57:32 435.822/435.867
HO-68 18 Jan 15:48:32 15:51:22 13° 44° (NE) 15:54:12 435.675
XW-2D 18 Jan 16:01:13 16:02:31 11° 61° (ENE) 16:03:48 145.860 - 145.880
BEESAT 18 Jan 16:02:57 16:07:46 87° 288° (WNW) 16:12:34 436.000
CUBESAT XI-V 18 Jan 16:14:51 16:19:27 61° 101° (E) 16:24:00 437.345
XW-2B 18 Jan 16:17:26 16:19:51 16° 64° (ENE) 16:22:16 145.730 - 145.750
MOZHAYETS 4 18 Jan 16:19:43 16:23:55 34° 292° (WNW) 16:28:04
SO-50 18 Jan 16:21:31 16:23:56 14° 251° (WSW) 16:26:20 436.795
AO-7 18 Jan 16:32:29 16:38:20 21° 270° (W) 16:44:16 .
KKS-1 18 Jan 16:33:16 16:35:47 15° 90° (E) 16:38:17 437.445
LilacSat-2 18 Jan 16:40:32 16:43:57 31° 69° (ENE) 16:47:23 437.200
XW-2C 18 Jan 16:46:20 16:49:47 33° 70° (ENE) 16:53:16 145.795 - 145.815
STARS 18 Jan 16:58:50 16:59:32 10° 88° (E) 17:00:12 437.465
ITUPSAT 1 18 Jan 16:59:31 17:03:38 28° 295° (WNW) 17:07:43 437.325
CUTE-I 18 Jan 17:00:36 17:05:39 47° 69° (ENE) 17:10:44 437.470
DOVE 4 18 Jan 17:01:30 17:05:07 26° 265° (W) 17:08:40 437.250
M-CUBED/EXP-1 PRIME 18 Jan 17:15:26 17:17:01 12° 264° (W) 17:18:34 437.505
XW-2F 18 Jan 17:25:02 17:28:51 86° 77° (ENE) 17:32:41 145.980 - 146.000
RS-15 18 Jan 17:25:44 17:37:39 87° 54° (NE) 17:48:52 29.354- 29.394
PCSat 18 Jan 17:25:59 17:29:30 17° 33° (NNE) 17:32:59 145.827
KAITUO 1B 18 Jan 17:28:16 17:32:01 71° 75° (ENE) 17:35:47 145.475/437.950
BEESAT 3 18 Jan 17:30:24 17:33:08 18° 37° (NE) 17:35:51 437.485
HO-68 18 Jan 17:30:40 17:37:32 53° 65° (ENE) 17:44:26 435.675
NO-84 18 Jan 17:31:36 17:33:53 19° 133° (SE) 17:36:05 435.350 FM
XW-2D 18 Jan 17:32:19 17:36:08 70° 258° (WSW) 17:39:58 145.860 - 145.880
CUBEBUG 2 18 Jan 17:36:22 17:39:56 25° 65° (ENE) 17:43:36 437.445
AAUSAT CUBESAT 2 18 Jan 17:38:44 17:39:43 11° 59° (ENE) 17:40:43 437.432
BEESAT 18 Jan 17:42:41 17:44:48 13° 304° (WNW) 17:46:54 436.000
NUDT-PHONESAT 18 Jan 17:44:23 17:48:08 78° 258° (WSW) 17:51:53 437.300
SEEDS 18 Jan 17:45:38 17:49:13 28° 68° (ENE) 17:52:48 437.485
UWE-3 18 Jan 17:47:59 17:51:11 20° 63° (ENE) 17:54:26 435.000/436.395/437.385
XW-2B 18 Jan 17:49:59 17:53:41 45° 261° (W) 17:57:23 145.730 - 145.750
CUTE 1.7 + AOD 2 18 Jan 17:52:04 17:56:13 52° 72° (ENE) 18:00:23 437.475
CUBESAT XI-V 18 Jan 17:53:19 17:56:21 17° 299° (WNW) 17:59:22 437.345
KKS-1 18 Jan 18:08:20 18:12:44 62° 288° (WNW) 18:17:07 437.445
BEESAT 2 18 Jan 18:11:43 18:14:10 15° 34° (NE) 18:16:34 435.950
LilacSat-2 18 Jan 18:15:11 18:18:15 22° 266° (W) 18:21:19 437.200
ZACube-1 18 Jan 18:17:40 18:21:01 21° 64° (ENE) 18:24:26 437.345
XW-2C 18 Jan 18:21:07 18:24:01 20° 267° (W) 18:26:57 145.795 - 145.815
AO-73 18 Jan 18:26:02 18:29:29 23° 64° (ENE) 18:33:00 145.935
STARS 18 Jan 18:32:01 18:36:27 85° 285° (WNW) 18:40:52 437.465
CUTE-I 18 Jan 18:41:31 18:45:54 26° 266° (W) 18:50:18 437.470
XW-2A 18 Jan 18:47:18 18:50:33 41° 72° (ENE) 18:53:48 145.665 - 145.685
Oscar 11 18 Jan 19:01:53 19:05:44 31° 68° (ENE) 19:09:36 .
FO-29 18 Jan 19:04:24 19:06:45 13° 87° (E) 19:09:06 435.910
BEESAT 3 18 Jan 19:07:11 19:11:05 70° 238° (WSW) 19:14:56 437.485
NO-84 18 Jan 19:08:00 19:10:51 45° 330° (NNW) 19:13:37 435.350 FM
PCSat 18 Jan 19:08:30 19:13:55 68° 54° (NE) 19:19:20 145.827
AAUSAT CUBESAT 2 18 Jan 19:10:22 19:14:31 86° 259° (W) 19:18:40 437.432
CUBEBUG 2 18 Jan 19:12:20 19:16:21 37° 264° (W) 19:20:33 437.445
HO-68 18 Jan 19:19:07 19:25:30 34° 264° (W) 19:31:56 435.675
SEEDS 18 Jan 19:21:06 19:24:50 29° 265° (W) 19:28:33 437.485
UWE-3 18 Jan 19:22:58 19:27:15 49° 261° (W) 19:31:41 435.000/436.395/437.385
CUTE 1.7 + AOD 2 18 Jan 19:29:39 19:32:20 16° 269° (W) 19:35:02 437.475
RS-15 18 Jan 19:39:27 19:48:33 28° 258° (WSW) 19:57:20 29.354- 29.394
STRAND 1 18 Jan 19:44:23 19:49:32 71° 103° (ESE) 19:54:39 437.568
AO-85 18 Jan 19:45:16 19:49:11 24° 38° (NE) 19:53:17 145.980
BEESAT 2 18 Jan 19:48:27 19:52:29 86° 49° (NE) 19:56:28 435.950
Max Valier Satellite 18 Jan 19:52:22 19:54:09 13° 62° (ENE) 19:55:55 145.860
ZACube-1 18 Jan 19:52:43 19:56:58 46° 262° (W) 20:01:21 437.345
AO-73 18 Jan 20:01:13 20:05:26 42° 263° (W) 20:09:45 145.935
STARS 18 Jan 20:10:47 20:12:03 11° 303° (WNW) 20:13:20 437.465
DELFI C3 18 Jan 20:12:35 20:16:04 32° 69° (ENE) 20:19:34 145.870
EO-88 18 Jan 20:16:54 20:19:10 16° 64° (ENE) 20:21:26 145.990 - 145.960
XW-2A 18 Jan 20:21:46 20:23:26 13° 269° (W) 20:25:07 145.665 - 145.685
Oscar 11 18 Jan 20:38:08 20:41:52 27° 265° (W) 20:45:37 .
nSIGHT-1 18 Jan 20:39:22 20:40:38 12° 133° (SE) 20:41:52 .
NO-84 18 Jan 20:46:45 20:48:33 15° 350° (N) 20:50:19 435.350 FM
FO-29 18 Jan 20:47:22 20:52:40 80° 286° (WNW) 20:57:51 435.910
PCSat 18 Jan 20:52:55 20:56:47 20° 254° (WSW) 21:00:38 145.827
Max Valier Satellite 18 Jan 21:23:49 21:27:29 56° 259° (W) 21:31:12 145.860
STRAND 1 18 Jan 21:24:44 21:28:10 18° 301° (WNW) 21:31:34 437.568
AO-85 18 Jan 21:25:09 21:30:03 73° 237° (WSW) 21:35:16 145.980
BEESAT 2 18 Jan 21:28:56 21:29:31 10° 252° (WSW) 21:30:06 435.950
TIGRISAT 18 Jan 21:32:16 21:36:39 37° 97° (E) 21:41:01 435.000
YUBILEINY 18 Jan 21:40:10 21:45:36 18° 75° (ENE) 21:51:00 435.215
LO-87 18 Jan 21:43:51 21:46:33 20° 67° (ENE) 21:49:16 145.935 - 145.965
UNISAT 6 18 Jan 21:46:42 21:51:20 57° 100° (E) 21:55:58 437.425
DELFI C3 18 Jan 21:47:47 21:50:51 22° 266° (W) 21:53:56 145.870
EO-88 18 Jan 21:48:59 21:52:28 41° 261° (W) 21:55:58 145.990 - 145.960
nSIGHT-1 18 Jan 22:13:09 22:16:18 77° 151° (SSE) 22:19:29 .
ISS 18 Jan 22:16:00 22:19:13 59° 147° (SSE) 22:22:27 437.550
NO-84 18 Jan 22:24:41 22:26:34 16° 12° (NNE) 22:28:29 435.350 FM
ESTCUBE 1 18 Jan 22:27:50 22:32:17 57° 72° (ENE) 22:36:44 437.505/2401.250
FO-29 18 Jan 22:34:52 22:36:52 12° 307° (NW) 22:38:52 435.910
VELOX 1 18 Jan 22:41:20 22:43:18 13° 59° (ENE) 22:45:15 145.980
PRISM 18 Jan 22:45:35 22:49:33 50° 100° (E) 22:53:31 437.425
SPROUT 18 Jan 22:55:43 22:59:18 27° 67° (ENE) 23:02:55 437.525
AIST 2D 18 Jan 22:58:47 23:01:57 32° 97° (E) 23:05:05 435.315
AO-85 18 Jan 23:08:24 23:09:46 11° 253° (WSW) 23:11:09 145.980
TIGRISAT 18 Jan 23:09:13 23:13:10 27° 294° (WNW) 23:17:07 435.000
QB50P2 18 Jan 23:10:02 23:12:49 17° 91° (E) 23:15:35 145.880/145.840
LO-87 18 Jan 23:16:39 23:19:46 28° 264° (W) 23:22:57 145.935 - 145.965
UNISAT 6 18 Jan 23:24:19 23:27:37 19° 298° (WNW) 23:30:56 437.425
YUBILEINY 18 Jan 23:32:09 23:40:59 82° 95° (E) 23:49:49 435.215
EO-79 18 Jan 23:41:05 23:44:55 31° 96° (E) 23:48:43 145.935-145.965
DUCHIFAT 1 18 Jan 23:43:14 23:46:46 25° 94° (E) 23:50:17 145.980
nSIGHT-1 18 Jan 23:49:47 23:52:42 32° 350° (N) 23:55:37 .
ISS 18 Jan 23:52:45 23:55:49 37° 346° (NNW) 23:58:55 437.550
NO-84 19 Jan 00:01:23 00:04:12 57° 33° (NNE) 00:07:06 435.350 FM
ESTCUBE 1 19 Jan 00:06:34 00:09:26 16° 270° (W) 00:12:18 437.505/2401.250
50 SAT 19 Jan 00:12:49 00:14:20 13° 64° (ENE) 00:15:51 437.505
VELOX 1 19 Jan 00:14:43 00:19:06 80° 255° (WSW) 00:23:32 145.980
POLYITAN 1 19 Jan 00:15:06 00:19:25 71° 102° (ESE) 00:23:41 437.675
PRISM 19 Jan 00:21:50 00:24:27 17° 298° (WNW) 00:27:04 437.425
SPROUT 19 Jan 00:31:21 00:35:06 30° 264° (W) 00:38:54 437.525
AIST 2D 19 Jan 00:32:30 00:34:53 17° 294° (WNW) 00:37:15 435.315
UKube-1 19 Jan 00:33:03 00:36:21 22° 64° (ENE) 00:39:41 .
NANOSAT C BR1 19 Jan 00:33:07 00:37:24 84° 284° (WNW) 00:41:40 145.865
O/OREOS (USA 219) 19 Jan 00:38:07 00:42:16 37° 107° (ESE) 00:46:25 437.305
DX 1 19 Jan 00:38:51 00:42:52 39° 69° (ENE) 00:46:55 434.975-435.025
QB50P2 19 Jan 00:44:43 00:48:53 50° 288° (WNW) 00:53:02 145.880/145.840
Gurwin Techsat 1B 19 Jan 00:45:28 00:48:26 15° 88° (E) 00:51:24 435.225
BUGSAT 1 19 Jan 00:53:56 00:57:48 33° 97° (E) 01:01:39 437.445
EO-79 19 Jan 01:16:56 01:20:34 27° 294° (WNW) 01:24:12 145.935-145.965
Oscar 19 19 Jan 01:17:28 01:22:16 37° 97° (E) 01:27:00 437.125/150
DUCHIFAT 1 19 Jan 01:18:37 01:22:27 33° 292° (WNW) 01:26:16 145.980
AO-91 19 Jan 01:21:32 01:25:40 45° 99° (E) 01:30:15 145.960
nSIGHT-1 19 Jan 01:26:30 01:29:24 31° 9° (N) 01:32:18 .
ISS 19 Jan 01:29:52 01:32:50 30° 6° (N) 01:35:48 437.550
YUBILEINY 19 Jan 01:31:55 01:38:53 25° 299° (WNW) 01:45:52 435.215
BEESAT 19 Jan 01:35:34 01:38:56 20° 61° (ENE) 01:42:20 436.000
NO-84 19 Jan 01:39:16 01:41:04 15° 229° (SW) 01:42:56 435.350 FM
50 SAT 19 Jan 01:42:54 01:45:45 34° 261° (W) 01:48:38 437.505
MOZHAYETS 4 19 Jan 01:46:38 01:50:52 36° 68° (ENE) 01:55:06
CUBESAT XI-V 19 Jan 01:46:51 01:48:10 11° 57° (ENE) 01:49:28 437.345
POLYITAN 1 19 Jan 01:52:26 01:54:37 14° 300° (WNW) 01:56:49 437.675
UKube-1 19 Jan 02:08:06 02:12:08 40° 261° (W) 02:16:12 .
NANOSAT C BR1 19 Jan 02:11:42 02:12:22 10° 303° (WNW) 02:13:03 145.865
DX 1 19 Jan 02:15:49 02:19:11 22° 266° (W) 02:22:34 434.975-435.025
O/OREOS (USA 219) 19 Jan 02:17:55 02:21:45 27° 305° (NW) 02:25:37 437.305
Gurwin Techsat 1B 19 Jan 02:23:40 02:29:01 79° 286° (WNW) 02:34:19 435.225
BUGSAT 1 19 Jan 02:29:30 02:33:00 25° 294° (WNW) 02:36:30 437.445
ITUPSAT 1 19 Jan 02:30:16 02:34:57 58° 71° (ENE) 02:39:40 437.325
AO-7 19 Jan 02:35:46 02:42:29 26° 92° (E) 02:49:09 .
Oscar 19 19 Jan 02:56:56 03:01:29 32° 295° (WNW) 03:06:02 437.125/150
AO-91 19 Jan 02:58:42 03:01:56 21° 294° (WNW) 03:05:23 145.960
nSIGHT-1 19 Jan 03:02:38 03:05:50 87° 206° (SSW) 03:09:01 .
ISS 19 Jan 03:06:22 03:09:40 75° 28° (NNE) 03:12:56 437.550
BEESAT 19 Jan 03:11:36 03:16:17 57° 259° (W) 03:21:01 436.000
CUBESAT XI-V 19 Jan 03:20:02 03:24:44 78° 75° (ENE) 03:29:26 437.345
MOZHAYETS 4 19 Jan 03:24:08 03:28:03 27° 266° (W) 03:32:01
KKS-1 19 Jan 03:33:26 03:36:36 20° 62° (ENE) 03:39:46 437.445
STARS 19 Jan 03:56:52 03:59:10 14° 59° (ENE) 04:01:27 437.465
ITAMSAT 1 19 Jan 03:57:33 04:02:42 59° 102° (ESE) 04:07:49 435.822/435.867
Gurwin Techsat 1B 19 Jan 04:05:37 04:08:06 13° 305° (NW) 04:10:35 435.225
ITUPSAT 1 19 Jan 04:09:56 04:13:09 18° 269° (W) 04:16:22 437.325
AO-7 19 Jan 04:27:39 04:36:03 77° 292° (WNW) 04:44:22 .
nSIGHT-1 19 Jan 04:39:50 04:41:34 14° 226° (SW) 04:43:18 .
ISS 19 Jan 04:43:26 04:45:50 19° 223° (SW) 04:48:12 437.550
M-CUBED/EXP-1 PRIME 19 Jan 04:48:33 04:51:35 29° 102° (ESE) 04:54:29 437.505
DOVE 4 19 Jan 04:55:59 05:00:14 61° 101° (E) 05:04:41 437.250
SO-50 19 Jan 04:58:08 05:00:26 14° 109° (ESE) 05:02:45 436.795
CUBESAT XI-V 19 Jan 05:00:37 05:02:39 13° 272° (W) 05:04:41 437.345
XW-2D 19 Jan 05:05:14 05:05:20 10° 88° (E) 05:05:27 145.860 - 145.880
KKS-1 19 Jan 05:08:32 05:12:48 49° 260° (W) 05:17:07 437.445
CUTE-I 19 Jan 05:16:19 05:19:16 15° 88° (E) 05:22:11 437.470
XW-2B 19 Jan 05:20:47 05:23:03 15° 91° (E) 05:25:18 145.730 - 145.750
FO-29 19 Jan 05:21:09 05:23:21 12° 53° (NE) 05:25:28 435.910
FALCONSAT 3 19 Jan 05:23:13 05:24:12 11° 164° (SSE) 05:25:11 435.103
STRAND 1 19 Jan 05:25:35 05:29:08 19° 60° (ENE) 05:32:42 437.568
STARS 19 Jan 05:30:36 05:34:56 71° 258° (WSW) 05:39:19 437.465
ITAMSAT 1 19 Jan 05:37:51 05:41:45 22° 300° (WNW) 05:45:39 435.822/435.867
LilacSat-2 19 Jan 05:45:02 05:48:27 31° 96° (E) 05:51:50 437.200
XW-2C 19 Jan 05:50:03 05:53:30 33° 97° (E) 05:56:54 145.795 - 145.815
AO-7 19 Jan 06:21:39 06:27:33 22° 314° (NW) 06:33:26 .
M-CUBED/EXP-1 PRIME 19 Jan 06:23:20 06:25:50 19° 301° (WNW) 06:28:13 437.505
XW-2F 19 Jan 06:28:22 06:32:08 89° 100° (E) 06:35:50 145.980 - 146.000
KAITUO 1B 19 Jan 06:30:27 06:34:09 71° 102° (ESE) 06:37:49 145.475/437.950
DOVE 4 19 Jan 06:35:01 06:37:32 15° 297° (WNW) 06:40:04 437.250
SO-50 19 Jan 06:35:47 06:40:15 78° 306° (NW) 06:44:50 436.795
XW-2D 19 Jan 06:36:12 06:39:57 66° 286° (WNW) 06:43:39 145.860 - 145.880
HO-68 19 Jan 06:42:57 06:49:43 43° 98° (E) 06:56:27 435.675
NUDT-PHONESAT 19 Jan 06:45:26 06:49:08 80° 284° (WNW) 06:52:47 437.300
AAUSAT CUBESAT 2 19 Jan 06:51:34 06:53:16 12° 89° (E) 06:54:57 437.432
XW-2B 19 Jan 06:53:51 06:57:26 42° 288° (WNW) 07:00:59 145.730 - 145.750
CUTE-I 19 Jan 06:54:35 06:59:56 80° 287° (WNW) 07:05:16 437.470
CUBEBUG 2 19 Jan 06:59:52 07:04:22 40° 97° (E) 07:08:49 437.445
FALCONSAT 3 19 Jan 07:00:10 07:02:27 16° 179° (S) 07:04:45 435.103
FO-29 19 Jan 07:00:42 07:07:26 60° 71° (ENE) 07:13:25 435.910
SEEDS 19 Jan 07:01:42 07:05:35 36° 97° (E) 07:09:25 437.485
STRAND 1 19 Jan 07:02:47 07:07:49 65° 258° (WSW) 07:12:55 437.568
CUTE 1.7 + AOD 2 19 Jan 07:09:51 07:14:06 75° 103° (ESE) 07:18:16 437.475
UWE-3 19 Jan 07:09:57 07:14:03 29° 94° (E) 07:18:07 435.000/436.395/437.385
LilacSat-2 19 Jan 07:19:38 07:22:33 21° 294° (WNW) 07:25:26 437.200
XW-2C 19 Jan 07:24:40 07:27:28 20° 294° (WNW) 07:30:16 145.795 - 145.815
ZACube-1 19 Jan 07:38:26 07:42:29 30° 95° (E) 07:46:28 437.345
XW-2A 19 Jan 07:38:47 07:41:47 29° 97° (E) 07:44:45 145.665 - 145.685
AO-73 19 Jan 07:46:30 07:50:35 32° 95° (E) 07:54:36 145.935
YUBILEINY 19 Jan 07:46:47 07:48:12 10° 45° (NE) 07:49:38 435.215
RS-15 19 Jan 07:51:04 08:02:23 45° 110° (ESE) 08:13:33 29.354- 29.394
KAITUO 1B 19 Jan 08:06:52 08:07:33 10° 299° (WNW) 08:08:14 145.475/437.950
SO-50 19 Jan 08:18:31 08:21:29 17° 329° (NNW) 08:24:29 436.795
Oscar 11 19 Jan 08:21:59 08:26:10 45° 98° (E) 08:30:17 .
AAUSAT CUBESAT 2 19 Jan 08:25:03 08:29:08 64° 286° (WNW) 08:33:11 437.432
HO-68 19 Jan 08:30:47 08:37:26 43° 297° (WNW) 08:44:03 435.675
TIGRISAT 19 Jan 08:33:04 08:37:13 41° 69° (ENE) 08:41:29 435.000
CUTE-I 19 Jan 08:36:36 08:39:08 14° 305° (NW) 08:41:40 437.470
CUBEBUG 2 19 Jan 08:36:50 08:40:46 26° 294° (WNW) 08:44:41 437.445
SEEDS 19 Jan 08:37:48 08:41:03 22° 294° (WNW) 08:44:17 437.485
FALCONSAT 3 19 Jan 08:39:22 08:40:44 12° 195° (SSW) 08:42:07 435.103
UWE-3 19 Jan 08:46:17 08:50:29 34° 292° (WNW) 08:54:39 435.000/436.395/437.385
FO-29 19 Jan 08:47:10 08:52:46 26° 266° (W) 08:57:55 435.910
CUTE 1.7 + AOD 2 19 Jan 08:47:29 08:49:19 13° 300° (WNW) 08:51:09 437.475
UNISAT 6 19 Jan 08:47:33 08:51:54 63° 73° (ENE) 08:56:25 437.425
Max Valier Satellite 19 Jan 08:53:03 08:54:09 11° 89° (E) 08:55:16 145.860
O/OREOS (USA 219) 19 Jan 09:07:01 09:09:48 16° 48° (NE) 09:12:35 437.305
XW-2A 19 Jan 09:11:56 09:14:16 18° 294° (WNW) 09:16:35 145.665 - 145.685
EO-88 19 Jan 09:15:59 09:17:50 13° 91° (E) 09:19:40 145.990 - 145.960
